Preview of NWS' New Version of Forecast
This preview is not operational and should not be used for support decisions.

Regional Weather Roundup (RWR)

Issued by National Weather Service (NWS)

                            
000
ASUS42 KTBW 212218
RWRFL 
FLORIDA REGIONAL WEATHER ROUNDUP
NATIONAL WEATHER SERVICE TAMPA BAY RUSKIN FL
600 PM EDT SUN JUL 21 2019

NOTE: "FAIR" INDICATES FEW OR NO CLOUDS BELOW 12,000 FEET WITH NO
SIGNIFICANT WEATHER AND/OR OBSTRUCTIONS TO VISIBILITY.

FLZ001>010-012>015-112-114-115-212300-
PANHANDLE FLORIDA
  
CITY           SKY/WX    TMP DP  RH WIND       PRES   REMARKS
PENSACOLA      FAIR      87  75  67 SW8       30.00F HX  96           
PENSACOLA NAS  PTSUNNY   83  76  79 SW10      30.00F                  
MILTON NAS     FAIR      87  70  56 S8          N/A                   
CRESTVIEW      FAIR      86  72  62 VRB7      30.01F                  
DUKE FIELD     FAIR      85  75  72 CALM      30.00F                  
VALPARAISO     FAIR      86  73  65 SW9       30.00F                  
MARY ESTHER    MOSUNNY   85  73  68 SW7       29.99F                  
PANAMA CITY    FAIR      85  73  67 S9        30.00F                  
TYNDALL AFB    FAIR      87  74  63 SW10      29.99F HX  95           
APALACHICOLA   FAIR      87  74  64 S9        30.00F HX  95           

STATION/POSITION SKY/WX   TEMP    WIND        PRES    WAVE   SWELL
                          AIR SEA DIR/SP/G            HT/PER HT/PER
                          (F)     (DEG/KT/KT) (MB)    (FT/S) (FT/S)
30.1N   87.6W              81 86  190/  6/  8 1016.1F   2/ 4   2/ 4
29.2N   88.2W              81 85  210/  8/ 10 1016.7
28.8N   86.0W                 86  280/  4/  6 1016.1F   1/ 4   2/ 6
PANAMA CITY BEAC           84 87  210/  7/  9 1016.9
TOWER C                    83     170/  4/  5 1016.2F
28.5N   84.5W              81     210/  2/  4 1016.6F   1/ 4   2/ 4

$$
FLZ011-016>038-118-127-128-134-139-239-212300-
NORTH FLORIDA
  
CITY           SKY/WX    TMP DP  RH WIND       PRES   REMARKS
MARIANNA       FAIR      81  74  79 W5        30.00F                  
TALLAHASSEE    FAIR      81  74  79 NW10      30.01S                  
PERRY          FAIR      83  73  69 CALM      30.00F                  
LIVE OAK       SUNNY     73  73 100 CALM      30.00S                  
CROSS CITY     FAIR      78  75  92 E7        30.05R                  
LAKE CITY      FAIR      81  70  69 W6        30.04R                  
GAINESVILLE    FAIR      82  69  64 CALM      30.08R                  
WILLISTON      TSTM      74  69  86 S23G35    30.12R                  
PALATKA        FAIR      81  73  78 SW9       30.06R                  
MAYPORT NAS    FAIR      85  76  74 SE14      30.03R                  
JACKSONVILLE   PTSUNNY   86  73  65 SE15      30.01R                  
JAX NAS        PTSUNNY   85  75  72 E8        30.04R                  
JAX CECIL      PTSUNNY   75  75 100 VRB5      30.04R                  
FERNANDINA BEA FAIR      87  75  68 SE16      30.01F HX  96           
ST AUGUSTINE   FAIR      84  75  74 S13       30.04S                  
PALM COAST     SUNNY     82  75  78 SE6       30.04F                  

STATION/POSITION SKY/WX   TEMP    WIND        PRES    WAVE   SWELL
                          AIR SEA DIR/SP/G            HT/PER HT/PER
                          (F)     (DEG/KT/KT) (MB)    (FT/S) (FT/S)
SHELL POINT      NOT AVBL
KEATON BEACH               86     250/  7/  8 1015.9F
CEDAR KEY                  85     150/  3/  3 1018.0R
FERNANDINA                 90 87  120/  7/ 12 1017.1
30.7N   81.3W                 84                N/A     2/ 8
MAYPORT                    84 84  130/  8/ 11 1017.1
31.4N   80.9W              83 85  160/ 14/ 17 1016.1F   2/ 8   2/ 8
ST AUGUSTINE               82 81  160/  9/  9 1017.2F

$$
FLZ040-043>046-052-053-057-058-063-144-212300-
INTERIOR CENTRAL FLORIDA
  
CITY           SKY/WX    TMP DP  RH WIND       PRES   REMARKS
OCALA          TSTM      73  70  90 S15       30.12R                  
LEESBURG       PTSUNNY   75  70  84 W8        30.10R                  
SANFORD        PTSUNNY   76  72  87 W5        30.05S                  
ORLANDO EXEC   FAIR      76  70  82 SW6       30.05S                  
ORLANDO INTL   CLOUDY    78  70  76 NW6       30.06R                  
KISSIMMEE      FAIR      78  71  79 NW7       30.07R                  
WINTER HAVEN   LGT RAIN  75  72  90 W7        30.07S                  
LAKELAND       TSTM      73  72  94 W6        30.09R                  
BARTOW         RAIN      75  73  94 SW7       30.07                   
SEBRING        MOCLDY    81  71  70 NW3       30.06S                  
OKEECHOBEE     CLOUDY    79  73  83 SW12      30.05R                  

$$
FLZ041-047-054-059-064-141-147-212300-
EAST CENTRAL FLORIDA
  
CITY           SKY/WX    TMP DP  RH WIND       PRES   REMARKS
ORMOND BEACH   MOSUNNY   82  79  89 SE9       30.05S                  
DAYTONA BEACH  PTSUNNY   81  75  82 SW6       30.05S                  
DELAND         FAIR      75  72  88 W3        30.06R                  
NEW SMYRNA BEA MOSUNNY   82  77  83 SE7       30.05F                  
JFK SPACE CTR  SUNNY     84  67  56 S5        30.04R                  
TITUSVILLE     PTSUNNY   88  75  66 S6        30.05S HX  97           
CAPE CANAVERAL SUNNY     85  58  40 SE7       30.03S                  
PATRICK AFB    FAIR      85  77  77 SE9       30.03F HX  95           
MELBOURNE      FAIR      86  75  69 E9        30.04S HX  95           
VERO BEACH     FAIR      87  73  62 E12       30.03S                  
FT PIERCE      FAIR      86  70  58 SE10      30.03R                  
STUART         MOSUNNY   82  72  69 SE12      30.04S                  

STATION/POSITION SKY/WX   TEMP    WIND        PRES    WAVE   SWELL
                          AIR SEA DIR/SP/G            HT/PER HT/PER
                          (F)     (DEG/KT/KT) (MB)    (FT/S) (FT/S)
28.5N   80.2W              84 84  160/ 10/ 10 1016.9F   1/ 8   2/ 8
28.9N   78.5W              85 87  120/  6/  8   N/A     2/ 8   2/ 8
TRIDENT PIER               84 85  110/  5/  7 1018.6
28.4N   80.5W                 83                N/A     1/ 7
27.5N   80.2W                 83                N/A     2/ 3

$$
FLZ050-056-061-142-242-148-248-149-249-151-251-155-255-
160-260-212300-
WEST CENTRAL FLORIDA
  
CITY           SKY/WX    TMP DP  RH WIND       PRES   REMARKS
CRYSTAL RIVER  TSTM      72  70  94 SE14G25   30.09R                  
INVERNESS      TSTM      70  70 100 W7        30.08F                  
BROOKSVILLE    LGT RAIN  71  69  93 NE10      30.10R                  
CLEARWATER AIR CLOUDY    77  72  83 SE10      30.06R                  
ST PETE CLEARW TSTM      75  71  87 VRB5G22   30.06R VSB 1/4          
TAMPA INTL     CLOUDY    78  68  71 S10       30.07S THUNDER          
TAMPA EXEC     LGT RAIN  72  70  94 CALM      30.08S                  
PLANT CITY     RAIN     N/A N/A N/A MISG      30.10F                  
MACDILL AFB    TSTM      73  68  83 CALM      30.06F                  
PETER O KNIGHT LGT RAIN  77  73  88 S6        30.07S                  
ST PETERSBURG  FAIR      78  71  79 NE6       30.05R                  
SARASOTA       FAIR      75  73  93 SE9       30.02F                  
VENICE         FAIR      79  70  73 E8        30.05F                  

STATION/POSITION SKY/WX   TEMP    WIND        PRES    WAVE   SWELL
                          AIR SEA DIR/SP/G            HT/PER HT/PER
                          (F)     (DEG/KT/KT) (MB)    (FT/S) (FT/S)
27.3N   84.2W                 87                N/A     2/ 4
CLEARWATER BEACH           85 87  220/  3/  4 1017.8
MIDDLE TAMPA BAY           77     130/ 12/ 21 1018.1
VENICE                     78 86   80/  7/  8 1017.3F

$$
FLZ066-069-070-075>078-162-262-165-265-212300-
SOUTHWEST FLORIDA AND KEYS
  
CITY           SKY/WX    TMP DP  RH WIND       PRES   REMARKS
PUNTA GORDA    FAIR      76  73  91 N7        30.06R                  
FT MYERS       TSTM      73  70  90 SE6       30.05S FOG              
SOUTHWEST INTL TSTM      73  70  90 N6        30.06F FOG              
MARCO ISLAND   LGT RAIN  77  74  90 MISG      30.04R                  
IMMOKALEE      PTSUNNY   75  72  88 S8        30.06R                  
MARATHON       FAIR      88  75  65 E5        29.99F HX  97           
KEY WEST NAS   FAIR      91  75  59 SE12      29.99F HX 101           
KEY WEST INTL  FAIR      87  76  69 SE15      30.00S HX  97           

STATION/POSITION SKY/WX   TEMP    WIND        PRES    WAVE   SWELL
                          AIR SEA DIR/SP/G            HT/PER HT/PER
                          (F)     (DEG/KT/KT) (MB)    (FT/S) (FT/S)
NAPLES                     78 88              1017.7
26.0N   85.6W              86 87   70/  2/  4 1016.0F   2/ 5   2/ 5
DRY TORTUGAS               85     140/  7/  8 1015.7F
SAND KEY                   81      90/ 20/ 29 1014.5
SOMBRERO KEY               85     130/ 10/ 12 1015.9
LONG KEY                   86                 1015.2

$$
FLZ067-068-071>074-168-172>174-212300-
SOUTHEAST FLORIDA 
  
CITY           SKY/WX    TMP DP  RH WIND       PRES   REMARKS
W PALM BEACH   PTSUNNY   85  74  69 SE10      30.03R                  
BOCA RATON     SUNNY     88  72  58 SE7       30.03R                  
FT LAUDER-EXEC FAIR      87  70  56 E9        30.02R                  
FT LAUDERDALE  PTSUNNY   87  73  62 SE12      30.02R                  
POMPANO BEACH  FAIR      87  74  64 SE10      30.02S HX  95           
PEMBROKE PINES FAIR      88  68  51 SE10      30.03R                  
OPA LOCKA      FAIR      87  72  60 SE9       30.02S                  
MIAMI          FAIR      87  71  58 SE8       30.02R                  
WEST KENDALL   FAIR      87  71  58 SE9       30.01S                  
HOMESTEAD      FAIR      88  75  64 SE7       30.00F HX  97           

STATION/POSITION SKY/WX   TEMP    WIND        PRES    WAVE   SWELL
                          AIR SEA DIR/SP/G            HT/PER HT/PER
                          (F)     (DEG/KT/KT) (MB)    (FT/S) (FT/S)
PORT EVERGLADES            86     130/  6/  8 1016.7
VIRGINIA KEY               85 89  110/  8/ 10 1016.0
LAKE WORTH                 83 86  130/  8/  8 1017.8
FOWEY ROCKS                84 85  100/  7/  7 1016.8S
SETTLEMENT POINT           84     190/  6/  7 10